TimeCST,TemperatureF,Dew PointF,Humidity,Sea Level PressureIn,VisibilityMPH,Wind Direction,Wind SpeedMPH,Gust SpeedMPH,PrecipitationIn,Events,Conditions,WindDirDegrees,DateUTC
12:53 AM,27.0,18.0,69,30.21,10.0,South,3.5,-,N/A,,Overcast,190,2013-03-03 06:53:00
1:53 AM,27.0,18.0,69,30.19,10.0,South,4.6,-,N/A,,Mostly Cloudy,190,2013-03-03 07:53:00
2:53 AM,26.1,18.0,71,30.16,10.0,SSE,4.6,-,N/A,,Mostly Cloudy,150,2013-03-03 08:53:00
3:53 AM,25.0,17.1,72,30.14,10.0,South,5.8,-,N/A,,Partly Cloudy,170,2013-03-03 09:53:00
4:53 AM,25.0,17.1,72,30.13,10.0,South,5.8,-,N/A,,Clear,170,2013-03-03 10:53:00
5:53 AM,25.0,17.1,72,30.13,10.0,SSE,9.2,-,N/A,,Clear,160,2013-03-03 11:53:00
6:53 AM,26.1,17.1,69,30.12,10.0,South,10.4,-,N/A,,Partly Cloudy,180,2013-03-03 12:53:00
7:53 AM,26.1,18.0,71,30.10,10.0,SSE,8.1,-,N/A,,Mostly Cloudy,160,2013-03-03 13:53:00
8:53 AM,30.0,19.0,64,30.09,10.0,South,6.9,-,N/A,,Overcast,170,2013-03-03 14:53:00
9:53 AM,33.1,19.9,59,30.07,10.0,SSE,8.1,17.3,N/A,,Overcast,160,2013-03-03 15:53:00
10:53 AM,35.1,21.0,57,30.04,10.0,SSE,11.5,-,N/A,,Overcast,160,2013-03-03 16:53:00
11:53 AM,39.0,21.9,50,30.00,10.0,SSE,8.1,-,N/A,,Clear,160,2013-03-03 17:53:00
12:53 PM,39.9,21.9,49,29.97,10.0,SSE,9.2,-,N/A,,Clear,150,2013-03-03 18:53:00
1:53 PM,39.9,23.0,51,29.95,10.0,SSE,9.2,-,N/A,,Clear,160,2013-03-03 19:53:00
2:53 PM,41.0,24.1,51,29.92,10.0,SE,8.1,-,N/A,,Clear,140,2013-03-03 20:53:00
3:53 PM,39.9,24.1,53,29.90,10.0,ESE,8.1,-,N/A,,Clear,120,2013-03-03 21:53:00
4:53 PM,39.9,25.0,55,29.90,10.0,ESE,8.1,-,N/A,,Clear,120,2013-03-03 22:53:00
5:53 PM,39.0,26.1,60,29.89,10.0,East,9.2,-,N/A,,Clear,90,2013-03-03 23:53:00
6:53 PM,37.9,25.0,60,29.86,10.0,East,11.5,-,N/A,,Clear,100,2013-03-04 00:53:00
7:53 PM,37.9,25.0,60,29.88,10.0,East,11.5,-,N/A,,Partly Cloudy,100,2013-03-04 01:53:00
8:53 PM,37.9,24.1,57,29.86,10.0,ESE,9.2,-,N/A,,Clear,110,2013-03-04 02:53:00
9:53 PM,37.9,25.0,60,29.84,10.0,ESE,10.4,-,N/A,,Clear,110,2013-03-04 03:53:00
10:53 PM,37.9,25.0,60,29.82,10.0,ESE,11.5,-,N/A,,Clear,120,2013-03-04 04:53:00
11:53 PM,37.9,25.0,60,29.79,10.0,ESE,12.7,-,N/A,,Clear,120,2013-03-04 05:53:00